[[{"header":{"parameterUnit":"m.s-1","parameterCategory":2,"la1":30.2991,"la2":30.254,"lo1":-89.0895,"lo2":-89.0444,"dy":0.0017,"dx":0.0017,"nx":28,"ny":28,"refTime":"2025-06-06T21:00:00:Z","depth":"0","parameterNumber":2,"parameterNumberName":"U-component_of_CURRENTS"},"data":[0,0,0,0,0,0,0,0,0,0,0,0,0,0,0,0,0,0,0,0,0,0,0,0,0,0,0,0,0,0,0,0,0,0,0,0,0,0,0,0,0,0,0,0,0,0,0,0,0,0,0,0,0,0,0,0,0,0,0.4346,0.4347,0,0.4471,0.4472,0.4474,0.4511,0.4511,0.4511,0.451,0.4611,0.4614,0.4617,0,0,0,0,0,0,0,0,0,0,0,0,0,0.4012,0.4018,0.4346,0.4347,0.4349,0.4471,0.4472,0.4474,0.4511,0.4511,0.451,0.451,0.461,0.4614,0.4618,0,0,0,0,0,0,0,0,0,0,0,0,0,0.4147,0.402,0.4345,0.4384,0.4389,0.4471,0.4472,0.4474,0.4512,0.4511,0.451,0.451,0.4609,0.4614,0.4618,0.4659,0,0,0.4632,0.4634,0,0,0,0,0,0,0,0,0.4139,0.4159,0.4377,0.4382,0.4388,0.4477,0.4392,0.4536,0.4512,0.4463,0.451,0.4509,0.4566,0.4574,0.4596,0.4664,0.4668,0.4633,0.4635,0.4637,0.4639,0,0,0,0,0,0,0,0.413,0.4153,0.4393,0.4379,0.4386,0.4352,0.4372,0.4419,0.4514,0.4467,0.4471,0.4489,0.4568,0.4592,0.4599,0.4669,0.4632,0.4637,0.4639,0.4641,0.4794,0.4795,0,0,0,0,0,0,0.4128,0.4146,0.4389,0.4397,0.4262,0.436,0.4381,0.4447,0.4514,0.4525,0.4489,0.449,0.4584,0.4593,0.4602,0.4638,0.4637,0.4642,0.4644,0.4792,0.4794,0.4795,0,0,0,0,0,0,0.4122,0.4151,0.4384,0.4272,0.43,0.4367,0.444,0.445,0.4471,0.4532,0.4541,0.4499,0.4584,0.4596,0.4654,0.4642,0.4644,0.4648,0.4791,0.4793,0.4795,0.4719,0,0,0,0,0,0,0.4112,0.4149,0.4193,0.4274,0.4306,0.4422,0.4441,0.4453,0.4484,0.4487,0.4544,0.4553,0.4584,0.4647,0.4658,0.4649,0.4651,0.4789,0.4792,0.4794,0.472,0.4718,0.4717,0,0,0,0,0,0.4101,0.4161,0.4196,0.4224,0.4369,0.4422,0.4434,0.4476,0.4485,0.4492,0.4544,0.4551,0.467,0.4652,0.4665,0.4656,0.4788,0.4791,0.4794,0.4721,0.4719,0.4717,0,0,0,0,0,0,0.4013,0.4174,0.4213,0.4314,0.4359,0.4429,0.4445,0.4474,0.4521,0.4524,0.4574,0.4587,0.4633,0.4668,0.4647,0.4713,0.4728,0.4734,0.4668,0.4666,0.4665,0.4676,0.4655,0,0,0,0,0,0.4024,0.4131,0.4227,0.4299,0.4322,0.4382,0.4409,0.4438,0.4492,0.4511,0.455,0.4603,0.4658,0.4679,0.4731,0.4767,0.4799,0.4773,0.4771,0.4769,0.4791,0.4835,0.4838,0.4805,0.4805,0.4805,0,0,0.4006,0.4109,0.4165,0.4289,0.4327,0.4366,0.4395,0.4434,0.4461,0.4516,0.4554,0.4601,0.4672,0.4713,0.4735,0.4736,0.479,0.4773,0.477,0.4794,0.4838,0.4841,0.4843,0.4807,0.4806,0.4806,0,0,0.3994,0.4111,0.4173,0.4223,0.4299,0.4347,0.4355,0.442,0.444,0.4492,0.454,0.4591,0.4658,0.4709,0.4745,0.4773,0.4785,0.4775,0.4765,0.4805,0.4807,0.481,0.482,0.4824,0.4765,0.4765,0.4765,0,0.3942,0.4067,0.418,0.4228,0.4257,0.4336,0.4348,0.44,0.447,0.4483,0.4492,0.4614,0.4663,0.4735,0.4746,0.4767,0.4781,0.4755,0.4799,0.4803,0.4807,0.4817,0.4822,0.4762,0.4762,0.4762,0.4763,0,0.3976,0.4056,0.408,0.4197,0.4234,0.4263,0.434,0.4371,0.4405,0.4451,0.4512,0.4594,0.4666,0.468,0.4726,0.4778,0.4775,0.479,0.4792,0.4805,0.4815,0.4822,0.4757,0.4758,0.4759,0.476,0,0,0.387,0.4069,0.4066,0.4107,0.4218,0.4246,0.4293,0.435,0.4383,0.4446,0.4482,0.4583,0.4626,0.4676,0.473,0.4771,0.4799,0.4788,0.4791,0.4776,0.4861,0.4764,0.4763,0.4809,0.481,0.4812,0.4842,0,0.3829,0.3933,0.4031,0.4073,0.4114,0.4195,0.4237,0.4302,0.4361,0.4423,0.4509,0.4584,0.4627,0.4665,0.4713,0.4806,0.4821,0.4789,0.4873,0.4875,0.477,0.477,0.4542,0.4543,0.485,0.4851,0.4852,0,0.3802,0.3884,0.3936,0.404,0.4055,0.4086,0.4155,0.421,0.4324,0.4368,0.4455,0.4542,0.4654,0.4674,0.481,0.4783,0.4817,0.4864,0.4866,0.4816,0.4793,0.4592,0.4545,0.4456,0.4863,0.4862,0.4861,0,0.3688,0.3797,0.3845,0.3882,0.4015,0.4017,0.4074,0.4175,0.4215,0.4349,0.4393,0.4534,0.4609,0.4703,0.4821,0.4815,0.4942,0.4942,0.4875,0.4867,0.4716,0.4692,0.458,0.5,0.5,0.5,0.5,0,0.3632,0.3642,0.3799,0.3824,0.3839,0.3947,0.3967,0.4048,0.4159,0.4211,0.4366,0.4433,0.4619,0.4721,0.4812,0.487,0.4932,0.4879,0.4875,0.4679,0.4653,0.4606,0.4593,0.5001,0.5001,0.5,0.5,0,0.3499,0.3614,0.3657,0.3778,0.3798,0.3808,0.3894,0.3931,0.405,0.4126,0.4172,0.4361,0.4494,0.465,0.4806,0.4833,0.4782,0.4907,0.4653,0.4618,0.4449,0.4441,0.4229,0.4119,0.4831,0.4829,0.4827,0,0.3441,0.3473,0.3596,0.3617,0.366,0.3697,0.3727,0.3852,0.39,0.4072,0.4104,0.426,0.4342,0.4534,0.4629,0.4736,0.4662,0.4569,0.4522,0.4405,0.4395,0.4266,0.418,0.4282,0.4276,0.4271,0.4267,0,0.3312,0.3375,0.3438,0.3498,0.3527,0.3552,0.3608,0.3627,0.3781,0.3835,0.3934,0.4011,0.4194,0.421,0.4351,0.4404,0.4338,0.4467,0.4413,0.4011,0.3796,0.3698,0.4294,0.4222,0.4227,0.423,0.4233,0.4234,0.3192,0.3221,0.3333,0.3361,0.339,0.3393,0.3347,0.3423,0.3446,0.3477,0.3673,0.3677,0.3825,0.3988,0.4027,0.3964,0.402,0.3878,0.3896,0.3789,0.3613,0.4099,0.3986,0.3988,0.3991,0.3993,0.3995,0,0.3046,0.313,0.3181,0.321,0.3165,0.3235,0.3246,0.3164,0.3104,0.3199,0.3221,0.3273,0.3294,0.3436,0.3504,0.3423,0.3301,0.3365,0.3138,0.3102,0.3586,0.3494,0.3183,0.3183,0.3183,0.3184,0.3184,0.3184,0.2994,0.3013,0.3068,0.2972,0.2967,0.2824,0.2786,0.2694,0.2696,0.262,0.2607,0.2701,0.3005,0.3158,0.3113,0.3041,0.2869,0.2712,0.2798,0.3164,0.3214,0.326,0.3169,0.2795,0.2795,0.2137,0.2132,0.2129]},{"header":{"parameterUnit":"m.s-1","parameterCategory":2,"la1":30.2991,"la2":30.254,"lo1":-89.0895,"lo2":-89.0444,"dy":0.0017,"dx":0.0017,"nx":28,"ny":28,"refTime":"2025-06-06T21:00:00:Z","depth":"0","parameterNumber":3,"parameterNumberName":"V-component_of_CURRENTS"},"data":[0,0,0,0,0,0,0,0,0,0,0,0,0,0,0,0,0,0,0,0,0,0,0,0,0,0,0,0,0,0,0,0,0,0,0,0,0,0,0,0,0,0,0,0,0,0,0,0,0,0,0,0,0,0,0,0,0,0,0.0316,0.0315,0,0.0236,0.0235,0.0234,0.0152,0.015,0.0149,0.0148,0.008,0.008,0.0079,0,0,0,0,0,0,0,0,0,0,0,0,0,0.0356,0.0356,0.0316,0.0315,0.0314,0.0236,0.0235,0.0234,0.0152,0.015,0.0149,0.0148,0.0081,0.008,0.0079,0,0,0,0,0,0,0,0,0,0,0,0,0,0.0314,0.0356,0.0316,0.0264,0.0258,0.0236,0.0235,0.0233,0.0152,0.015,0.0149,0.0147,0.0081,0.008,0.0079,0.0105,0,0,0.0075,0.0075,0,0,0,0,0,0,0,0,0.0316,0.0312,0.0272,0.0267,0.0261,0.0202,0.0224,0.0191,0.0152,0.0192,0.0148,0.0146,0.0124,0.0119,0.0107,0.0101,0.0099,0.0075,0.0074,0.0074,0.0074,0,0,0,0,0,0,0,0.032,0.0315,0.0284,0.0272,0.0265,0.023,0.0223,0.0217,0.0168,0.0189,0.0182,0.0174,0.012,0.0108,0.0105,0.0098,0.0075,0.0074,0.0073,0.0073,0.0121,0.0123,0,0,0,0,0,0,0.0334,0.0318,0.0286,0.0281,0.0286,0.0231,0.0222,0.0223,0.0168,0.0158,0.0176,0.0171,0.0111,0.0106,0.0102,0.0148,0.0074,0.0073,0.0072,0.0119,0.0122,0.0124,0,0,0,0,0,0,0.0335,0.0332,0.029,0.0297,0.029,0.0232,0.0233,0.0222,0.0206,0.0158,0.0148,0.0171,0.011,0.0104,0.0112,0.0144,0.0072,0.0071,0.0117,0.012,0.0123,0.0229,0,0,0,0,0,0,0.0337,0.0334,0.0338,0.0299,0.029,0.0294,0.0234,0.0222,0.0204,0.0196,0.0151,0.0143,0.0108,0.0114,0.0111,0.0141,0.007,0.0115,0.0119,0.0122,0.0223,0.0235,0.0246,0,0,0,0,0,0.0339,0.0363,0.034,0.0335,0.0299,0.0295,0.0288,0.024,0.0206,0.0216,0.0185,0.0144,0.0135,0.0115,0.011,0.0142,0.0113,0.0117,0.0122,0.0218,0.0233,0.0245,0,0,0,0,0,0,0.0383,0.0355,0.0329,0.0342,0.0325,0.0282,0.0284,0.0251,0.0233,0.0222,0.0171,0.0163,0.0181,0.0153,0.0133,0.0168,0.0117,0.0121,0.0191,0.0205,0.0216,0.0239,0.0069,0,0,0,0,0,0.0396,0.0406,0.0372,0.0384,0.0377,0.0331,0.0321,0.0292,0.0269,0.0257,0.0226,0.0202,0.0199,0.0194,0.0184,0.0208,0.0171,0.0225,0.0237,0.0246,0.0264,0.0247,0.0258,0.0139,0.0139,0.0139,0,0,0.0418,0.0402,0.0407,0.0394,0.0371,0.0381,0.0321,0.0318,0.0328,0.0256,0.0266,0.0241,0.0214,0.0238,0.0243,0.0217,0.0259,0.0252,0.026,0.0273,0.0253,0.0264,0.0274,0.0142,0.0141,0.0141,0,0,0.0469,0.0451,0.0474,0.0468,0.0445,0.0423,0.0427,0.0393,0.038,0.0394,0.0344,0.0346,0.0334,0.0324,0.0317,0.039,0.032,0.0381,0.0457,0.0441,0.0451,0.0459,0.0413,0.0416,0.0386,0.0387,0.0387,0,0.0494,0.0512,0.0483,0.0502,0.0503,0.0449,0.0475,0.0465,0.0439,0.0446,0.0414,0.0413,0.0381,0.0417,0.0435,0.0416,0.0382,0.0405,0.0455,0.0463,0.0469,0.042,0.0422,0.0392,0.0392,0.0391,0.0391,0,0.0559,0.0571,0.0588,0.0592,0.0595,0.0612,0.0591,0.0597,0.0573,0.056,0.0588,0.0554,0.0554,0.0545,0.051,0.0548,0.0499,0.047,0.0419,0.0487,0.0432,0.0432,0.04,0.0398,0.0397,0.0395,0,0,0.0626,0.0632,0.0637,0.0648,0.0643,0.0653,0.0684,0.07,0.0729,0.0711,0.0757,0.0744,0.0717,0.0709,0.0667,0.0653,0.0653,0.0586,0.0582,0.0538,0.0595,0.0545,0.0539,0.0627,0.0628,0.0629,0.0533,0,0.0684,0.0734,0.0722,0.0772,0.0796,0.077,0.081,0.0818,0.0819,0.0854,0.083,0.0855,0.0783,0.0789,0.0768,0.0692,0.0661,0.0681,0.0539,0.0535,0.0479,0.0541,0.0509,0.042,0.0532,0.0532,0.0532,0,0.0754,0.0774,0.083,0.086,0.087,0.0895,0.0941,0.097,0.1003,0.101,0.1027,0.1,0.0997,0.0921,0.0828,0.0841,0.073,0.0656,0.065,0.0571,0.0486,0.0374,0.0415,0.0242,0.0531,0.0532,0.0532,0,0.0815,0.0854,0.0896,0.0907,0.0935,0.0962,0.0985,0.1021,0.107,0.1112,0.1154,0.1131,0.1132,0.1021,0.0867,0.0846,0.0747,0.0693,0.0539,0.0532,0.0463,0.0449,0.0321,0.0618,0.0618,0.0618,0.0619,0,0.0888,0.0926,0.0927,0.0953,0.102,0.1022,0.1108,0.1128,0.1195,0.1278,0.124,0.1294,0.1156,0.1082,0.092,0.0741,0.0781,0.0568,0.0519,0.0497,0.0488,0.0298,0.0225,0.0615,0.0615,0.0616,0.0617,0,0.0959,0.0958,0.1007,0.1035,0.1049,0.11,0.1182,0.1257,0.1298,0.1408,0.1432,0.142,0.1322,0.1156,0.0972,0.081,0.0536,0.0552,0.0524,0.0475,0.0171,0.0106,-0.0052,-0.0123,0.0375,0.0374,0.0372,0,0.0997,0.1029,0.1063,0.11,0.1114,0.1187,0.1255,0.1309,0.1396,0.1489,0.1556,0.1501,0.1481,0.1194,0.0903,0.0618,0.0468,0.0389,0.035,0.0166,0.0057,0.0013,-0.0037,0.0283,0.0282,0.028,0.0279,0,0.1068,0.1076,0.1114,0.119,0.1249,0.1334,0.143,0.1511,0.1597,0.1676,0.1758,0.1746,0.1475,0.1188,0.08,0.0594,0.0277,0.0346,0.0173,0.0001,-0.007,-0.0166,0.031,0.0264,0.0266,0.0267,0.0268,0.0268,0.1111,0.1159,0.1206,0.1286,0.1364,0.1478,0.1563,0.1667,0.1796,0.1898,0.1885,0.1858,0.1454,0.0927,0.0637,0.0101,0.0143,-0.0074,-0.0134,-0.0159,-0.0229,0.0209,0.0102,0.0103,0.0103,0.0104,0.0104,0,0.1146,0.1215,0.1302,0.1394,0.1501,0.1526,0.168,0.1756,0.1895,0.1957,0.199,0.1761,0.1258,0.0768,0.0076,-0.0303,-0.042,-0.0503,-0.0578,-0.0603,-0.0213,-0.0219,-0.0418,-0.0418,-0.0418,-0.0417,-0.0417,-0.0417,0.1168,0.1254,0.1311,0.1487,0.1569,0.1705,0.1794,0.1875,0.1939,0.1981,0.1938,0.1895,0.1551,0.0326,-0.0491,-0.0683,-0.0922,-0.1003,-0.1085,-0.084,-0.0804,-0.0771,-0.0795,-0.1112,-0.1113,-0.1453,-0.1457,-0.1459]}],[{"header":{"parameterUnit":"m.s-1","parameterCategory":2,"la1":30.2991,"la2":30.254,"lo1":-89.0895,"lo2":-89.0444,"dy":0.0017,"dx":0.0017,"nx":28,"ny":28,"refTime":"2025-06-06T21:00:00:Z","depth":"2","parameterNumber":2,"parameterNumberName":"U-component_of_CURRENTS"},"data":[0,0,0,0,0,0,0,0,0,0,0,0,0,0,0,0,0,0,0,0,0,0,0,0,0,0,0,0,0,0,0,0,0,0,0,0,0,0,0,0,0,0,0,0,0,0,0,0,0,0,0,0,0,0,0,0,0,0,0.3375,0.3377,0,0.3508,0.351,0.3511,0.3615,0.3617,0.3618,0.3619,0.3517,0.3513,0.3509,0,0,0,0,0,0,0,0,0,0,0,0,0,0.3183,0.3186,0.3375,0.3377,0.3379,0.3508,0.351,0.3511,0.3615,0.3617,0.3618,0.362,0.3518,0.3513,0.3509,0,0,0,0,0,0,0,0,0,0,0,0,0,0.3283,0.3187,0.3375,0.3449,0.3457,0.3508,0.351,0.3512,0.3615,0.3617,0.3619,0.3621,0.352,0.3514,0.3508,0.343,0,0,0.349,0.3487,0,0,0,0,0,0,0,0,0.3277,0.3289,0.3436,0.3444,0.3454,0.3551,0.3405,0.3474,0.3614,0.3551,0.3619,0.3622,0.3507,0.3502,0.3521,0.3425,0.3421,0.3489,0.3486,0.3483,0.3481,0,0,0,0,0,0,0,0.327,0.3284,0.3424,0.3438,0.3449,0.3467,0.3483,0.3419,0.3508,0.3557,0.3565,0.3586,0.351,0.3527,0.3519,0.3419,0.3489,0.3484,0.348,0.3478,0.3612,0.3619,0,0,0,0,0,0,0.3261,0.3277,0.342,0.3428,0.3373,0.3469,0.3487,0.3514,0.3515,0.352,0.3584,0.359,0.3536,0.3526,0.3515,0.3599,0.3483,0.3477,0.3474,0.3605,0.3614,0.3621,0,0,0,0,0,0,0.3256,0.3272,0.3415,0.3358,0.3378,0.3471,0.35,0.3516,0.3583,0.3539,0.3539,0.3641,0.3537,0.3523,0.3518,0.3588,0.3475,0.3469,0.3597,0.3608,0.3618,0.365,0,0,0,0,0,0,0.325,0.327,0.3296,0.3358,0.3381,0.3462,0.3499,0.3517,0.3591,0.3602,0.3586,0.3577,0.3538,0.3528,0.3513,0.3578,0.3465,0.3588,0.3602,0.3614,0.364,0.3661,0.3679,0,0,0,0,0,0.3243,0.3271,0.3296,0.3314,0.3411,0.3463,0.3476,0.3545,0.3593,0.3615,0.3631,0.358,0.3608,0.3525,0.3506,0.3571,0.3581,0.3598,0.3613,0.3632,0.3657,0.3678,0,0,0,0,0,0,0.3213,0.3286,0.3315,0.3369,0.3419,0.3483,0.3527,0.3569,0.3605,0.3637,0.3593,0.3584,0.3637,0.3614,0.3526,0.3679,0.3616,0.3629,0.3638,0.3661,0.368,0.3639,0.346,0,0,0,0,0,0.3213,0.3243,0.3317,0.3355,0.3398,0.3469,0.3508,0.356,0.3598,0.3623,0.3606,0.3641,0.3683,0.3675,0.3694,0.37,0.3655,0.3773,0.3792,0.3806,0.3779,0.3795,0.3808,0.3674,0.3674,0.3674,0,0,0.3197,0.3253,0.3264,0.3349,0.3408,0.3457,0.3499,0.3582,0.3621,0.3594,0.3638,0.3682,0.3711,0.3765,0.379,0.3743,0.3829,0.3827,0.3837,0.3801,0.3812,0.3823,0.3833,0.3685,0.3683,0.3682,0,0,0.3198,0.3256,0.3294,0.3339,0.3442,0.3481,0.3514,0.3599,0.3649,0.3685,0.3734,0.3818,0.3817,0.3877,0.3904,0.4041,0.3941,0.409,0.4106,0.4123,0.413,0.4135,0.4082,0.4082,0.4082,0.4082,0.4082,0,0.3148,0.3252,0.3308,0.3368,0.3412,0.3496,0.3551,0.3597,0.3662,0.3708,0.3714,0.3863,0.3882,0.3986,0.4057,0.4072,0.4027,0.3986,0.4132,0.4137,0.4142,0.4086,0.4086,0.4086,0.4085,0.4085,0.4085,0,0.3217,0.3277,0.3312,0.3401,0.3445,0.3512,0.3585,0.3644,0.3715,0.3767,0.3897,0.3948,0.4042,0.4105,0.4095,0.4196,0.4134,0.415,0.4031,0.4154,0.4092,0.409,0.4091,0.409,0.4089,0.4088,0,0,0.3099,0.3306,0.3316,0.337,0.3482,0.352,0.3598,0.3695,0.3766,0.385,0.3941,0.4072,0.4134,0.4177,0.4227,0.4234,0.4242,0.4188,0.4188,0.4058,0.4202,0.4091,0.4078,0.425,0.4251,0.4252,0.4134,0,0.3116,0.3252,0.3347,0.3422,0.3487,0.3575,0.3626,0.372,0.3806,0.3897,0.4024,0.4131,0.4153,0.4224,0.4243,0.4289,0.4243,0.4267,0.417,0.4165,0.3988,0.4076,0.3802,0.3669,0.4132,0.4132,0.4132,0,0.3139,0.3234,0.3348,0.3464,0.3502,0.3547,0.3671,0.3732,0.3877,0.3955,0.4086,0.4169,0.429,0.4263,0.4311,0.4315,0.4237,0.4217,0.4213,0.4083,0.4053,0.3636,0.3648,0.4128,0.4129,0.4129,0.4129,0,0.3056,0.3207,0.3309,0.3348,0.3496,0.3557,0.3633,0.3764,0.3827,0.4002,0.407,0.4221,0.4306,0.4294,0.4309,0.4295,0.4284,0.4278,0.4071,0.406,0.3795,0.376,0.42,0.42,0.4201,0.4201,0.4201,0,0.3027,0.3083,0.3287,0.333,0.3409,0.3528,0.3614,0.3716,0.3861,0.3933,0.4099,0.4171,0.4305,0.4339,0.4304,0.4208,0.4292,0.4056,0.4032,0.3807,0.3776,0.4161,0.4158,0.4196,0.4197,0.4198,0.4199,0,0.2906,0.3058,0.3142,0.3324,0.3373,0.3424,0.357,0.3638,0.3791,0.3888,0.395,0.4141,0.4184,0.4247,0.4241,0.4189,0.4129,0.4028,0.373,0.3673,0.3867,0.3869,0.3787,0.3782,0.3778,0.3775,0.3772,0,0.2866,0.2912,0.3094,0.3151,0.3238,0.3337,0.3405,0.3575,0.3649,0.3844,0.3886,0.3987,0.3987,0.3983,0.3929,0.3824,0.3942,0.3508,0.3448,0.3845,0.383,0.3838,0.3846,0.3099,0.3091,0.3085,0.3079,0,0.2745,0.2825,0.2917,0.3029,0.3118,0.3192,0.3314,0.3346,0.3538,0.3586,0.3655,0.367,0.3677,0.3501,0.3435,0.3355,0.3541,0.3365,0.387,0.327,0.3194,0.3181,0.3211,0.3021,0.3026,0.3031,0.3034,0.3036,0.2641,0.2664,0.2802,0.2888,0.2986,0.3046,0.3016,0.3113,0.3132,0.3152,0.3306,0.3199,0.3249,0.297,0.2885,0.2861,0.3057,0.2963,0.2984,0.3012,0.2977,0.2901,0.2661,0.2664,0.2668,0.267,0.2673,0,0.2495,0.2583,0.2653,0.2751,0.2774,0.29,0.2944,0.2843,0.274,0.2809,0.2751,0.2491,0.2359,0.2435,0.2275,0.2275,0.2269,0.2226,0.2209,0.2268,0.2321,0.2253,0.1743,0.174,0.1737,0.1735,0,0,0.2447,0.2459,0.2498,0.2505,0.259,0.2511,0.2485,0.2343,0.2303,0.2144,0.2075,0.2164,0.2308,0.1957,0.1941,0.1822,0.203,0.1758,0.2503,0.254,0.2588,0.2744,0.2705,0,0,0,0,0]},{"header":{"parameterUnit":"m.s-1","parameterCategory":2,"la1":30.2991,"la2":30.254,"lo1":-89.0895,"lo2":-89.0444,"dy":0.0017,"dx":0.0017,"nx":28,"ny":28,"refTime":"2025-06-06T21:00:00:Z","depth":"2","parameterNumber":3,"parameterNumberName":"V-component_of_CURRENTS"},"data":[0,0,0,0,0,0,0,0,0,0,0,0,0,0,0,0,0,0,0,0,0,0,0,0,0,0,0,0,0,0,0,0,0,0,0,0,0,0,0,0,0,0,0,0,0,0,0,0,0,0,0,0,0,0,0,0,0,0,-0.0175,-0.0176,0,-0.0236,-0.0237,-0.0238,-0.031,-0.0311,-0.0311,-0.0312,-0.0508,-0.0512,-0.0517,0,0,0,0,0,0,0,0,0,0,0,0,0,-0.0018,-0.0021,-0.0175,-0.0176,-0.0176,-0.0236,-0.0237,-0.0239,-0.031,-0.0311,-0.0312,-0.0312,-0.0506,-0.0512,-0.0517,0,0,0,0,0,0,0,0,0,0,0,0,0,-0.0087,-0.0022,-0.0175,-0.0216,-0.022,-0.0236,-0.0237,-0.0239,-0.031,-0.0311,-0.0312,-0.0313,-0.0505,-0.0511,-0.0518,-0.0537,0,0,-0.0539,-0.0541,0,0,0,0,0,0,0,0,-0.0083,-0.0093,-0.021,-0.0213,-0.0218,-0.0263,-0.0253,-0.0344,-0.0309,-0.028,-0.0312,-0.0313,-0.0435,-0.0448,-0.046,-0.0546,-0.0555,-0.0539,-0.0543,-0.0546,-0.0548,0,0,0,0,0,0,0,-0.0078,-0.009,-0.0203,-0.021,-0.0215,-0.0196,-0.0208,-0.027,-0.0356,-0.0282,-0.0287,-0.0287,-0.0439,-0.0453,-0.0466,-0.0558,-0.0539,-0.0545,-0.0549,-0.0552,-0.0549,-0.0545,0,0,0,0,0,0,-0.0068,-0.0087,-0.0201,-0.0205,-0.0148,-0.0198,-0.0212,-0.0251,-0.0352,-0.0367,-0.0286,-0.029,-0.0441,-0.0458,-0.0473,-0.043,-0.0546,-0.0552,-0.0556,-0.0553,-0.0548,-0.0543,0,0,0,0,0,0,-0.0065,-0.0079,-0.0199,-0.0141,-0.0155,-0.02,-0.0242,-0.0251,-0.0253,-0.0353,-0.0371,-0.0277,-0.0443,-0.0464,-0.0508,-0.0441,-0.0556,-0.0562,-0.0558,-0.0551,-0.0545,-0.039,0,0,0,0,0,0,-0.0061,-0.0079,-0.0107,-0.0142,-0.0158,-0.0194,-0.0241,-0.0251,-0.0251,-0.0257,-0.0352,-0.0372,-0.0445,-0.0497,-0.0514,-0.0452,-0.0567,-0.0563,-0.0555,-0.0547,-0.0401,-0.038,-0.0362,0,0,0,0,0,-0.0056,-0.0061,-0.0109,-0.0122,-0.0196,-0.0193,-0.0198,-0.0235,-0.0249,-0.0242,-0.0301,-0.0368,-0.0458,-0.0501,-0.0522,-0.046,-0.0567,-0.0557,-0.0548,-0.041,-0.0384,-0.0362,0,0,0,0,0,0,0.0004,-0.007,-0.0123,-0.0153,-0.0174,-0.0203,-0.0187,-0.0215,-0.0253,-0.0254,-0.0353,-0.0376,-0.0378,-0.0434,-0.0478,-0.0425,-0.0508,-0.0502,-0.0394,-0.0371,-0.0352,-0.0349,-0.0573,0,0,0,0,0,-0.0002,-0.0041,-0.0091,-0.0117,-0.0113,-0.015,-0.0153,-0.0176,-0.0208,-0.0224,-0.0288,-0.0331,-0.0354,-0.0378,-0.0418,-0.0417,-0.0485,-0.0373,-0.0353,-0.0337,-0.0341,-0.0369,-0.0354,-0.0513,-0.0513,-0.0513,0,0,0.0012,-0.0031,-0.0057,-0.0108,-0.0119,-0.0109,-0.0154,-0.0136,-0.0127,-0.0242,-0.0241,-0.028,-0.0337,-0.0325,-0.0326,-0.0369,-0.0324,-0.0325,-0.0311,-0.0325,-0.0358,-0.0343,-0.033,-0.0506,-0.0507,-0.0508,0,0,0.0056,-0.0007,-0.0013,-0.0024,-0.0038,-0.0056,-0.0042,-0.0062,-0.0065,-0.0077,-0.0128,-0.0126,-0.0189,-0.0198,-0.0214,-0.0107,-0.0221,-0.0099,-0.0009,-0.0033,-0.0022,-0.0013,-0.0082,-0.008,-0.0088,-0.0087,-0.0087,0,0.0075,0.0045,-0.0004,0.0006,0.0015,-0.0023,0.0008,0.0003,-0.0033,-0.0015,-0.0056,-0.0072,-0.0121,-0.0082,-0.0038,-0.0064,-0.0124,-0.0102,-0.0013,-0.0005,0.0001,-0.0071,-0.0072,-0.0079,-0.008,-0.0081,-0.0081,0,0.0115,0.0098,0.0122,0.0094,0.0099,0.0134,0.012,0.0136,0.013,0.0118,0.0156,0.01,0.0096,0.0108,0.0053,0.0112,0.0039,0.0009,-0.0085,0.0026,-0.0057,-0.006,-0.0066,-0.0069,-0.0072,-0.0074,0,0,0.0169,0.0144,0.0158,0.0163,0.0156,0.0177,0.0217,0.0249,0.0301,0.0273,0.0336,0.0322,0.0306,0.029,0.0253,0.0231,0.0232,0.0144,0.0139,0.0054,0.0134,0.0099,0.009,0.0205,0.0205,0.0206,0.0055,0,0.0226,0.0257,0.0231,0.0287,0.0316,0.0303,0.035,0.0372,0.0386,0.0435,0.0421,0.0458,0.0375,0.0398,0.0365,0.0288,0.0231,0.0273,0.0058,0.0051,-0.0012,0.0089,0.0103,-0.0029,0.005,0.005,0.0049,0,0.0293,0.0303,0.0357,0.0392,0.0412,0.0444,0.0528,0.0558,0.0611,0.063,0.0652,0.0626,0.0637,0.054,0.0419,0.0445,0.0293,0.0197,0.0189,0.0095,0.0011,-0.0123,-0.004,0.0042,0.0043,0.0043,0.0044,0,0.0375,0.0408,0.0454,0.0462,0.049,0.0543,0.0579,0.0636,0.0698,0.0765,0.0818,0.0794,0.0809,0.0651,0.0469,0.0442,0.0295,0.0236,0.0038,0.0031,-0.003,-0.0042,0.0098,0.0099,0.0099,0.0099,0.01,0,0.0449,0.0501,0.0505,0.0532,0.0628,0.0632,0.075,0.0785,0.087,0.0965,0.0933,0.0987,0.0833,0.0734,0.0523,0.0295,0.0334,0.0061,0.0007,0.0027,0.0022,0.0025,0.0018,0.0094,0.0095,0.0096,0.0097,0,0.0531,0.0528,0.0583,0.0629,0.0661,0.0734,0.0842,0.0934,0.1001,0.1123,0.1159,0.1149,0.1013,0.0807,0.0561,0.0383,0.0159,0.0036,0.0055,0.0008,-0.0121,-0.0117,-0.0185,-0.0188,-0.0189,-0.0191,-0.0192,0,0.0572,0.0601,0.0649,0.0698,0.0727,0.0832,0.0922,0.1,0.1099,0.1212,0.1286,0.1211,0.1136,0.0784,0.0465,0.0102,0.007,-0.01,-0.0141,-0.0095,-0.0142,-0.0135,-0.0129,-0.0178,-0.0179,-0.018,-0.018,0,0.0643,0.0652,0.0685,0.0778,0.087,0.0977,0.1109,0.1199,0.1309,0.1384,0.145,0.1396,0.1071,0.074,0.03,0.0064,-0.0019,-0.0132,-0.0064,-0.0092,-0.0095,-0.0138,-0.0131,-0.0188,-0.0187,-0.0186,-0.0186,-0.0186,0.0702,0.0723,0.0762,0.0864,0.0979,0.1134,0.1227,0.1332,0.1456,0.1548,0.1507,0.1401,0.1094,0.0483,0.0156,-0.0156,-0.0174,-0.0276,-0.027,-0.0265,-0.022,-0.0224,-0.0337,-0.0337,-0.0337,-0.0337,-0.0337,0,0.075,0.0779,0.0856,0.0976,0.1127,0.1187,0.1363,0.1415,0.1518,0.1554,0.1525,0.1197,0.0825,0.0486,-0.0004,-0.0298,-0.0307,-0.0365,-0.0304,-0.0296,-0.0289,-0.0242,-0.0367,-0.0368,-0.0369,-0.0369,0,0,0.0773,0.0835,0.0859,0.1087,0.1212,0.1389,0.149,0.1513,0.1535,0.1508,0.1444,0.1278,0.0895,0.0543,0.0155,-0.0096,-0.0125,-0.0149,-0.01,0.0023,0.0035,-0.0223,-0.0141,0,0,0,0,0]}],[{"header":{"parameterUnit":"m.s-1","parameterCategory":2,"la1":30.2991,"la2":30.254,"lo1":-89.0895,"lo2":-89.0444,"dy":0.0017,"dx":0.0017,"nx":28,"ny":28,"refTime":"2025-06-06T21:00:00:Z","depth":"4","parameterNumber":2,"parameterNumberName":"U-component_of_CURRENTS"},"data":[0,0,0,0,0,0,0,0,0,0,0,0,0,0,0,0,0,0,0,0,0,0,0,0,0,0,0,0,0,0,0,0,0,0,0,0,0,0,0,0,0,0,0,0,0,0,0,0,0,0,0,0,0,0,0,0,0,0,0.0589,0.0588,0,0.0537,0.0537,0.0537,0.06,0.0603,0.0605,0.0607,0.0826,0.083,0.0833,0,0,0,0,0,0,0,0,0,0,0,0,0,0.0826,0.0821,0.0589,0.0588,0.0588,0.0538,0.0537,0.0536,0.06,0.0603,0.0605,0.0608,0.0825,0.0829,0.0834,0,0,0,0,0,0,0,0,0,0,0,0,0,0.0745,0.0819,0.0589,0.0612,0.0614,0.0538,0.0537,0.0536,0.0599,0.0603,0.0606,0.0609,0.0823,0.0829,0.0834,0.0803,0,0,0.0852,0.0854,0,0,0,0,0,0,0,0,0.0749,0.0736,0.061,0.061,0.0612,0.0578,0.0701,0.0638,0.0599,0.0606,0.0607,0.0611,0.0765,0.0775,0.0756,0.0813,0.0823,0.0852,0.0856,0.0858,0.086,0,0,0,0,0,0,0,0.0755,0.0739,0.057,0.0608,0.061,0.0654,0.0645,0.0689,0.0674,0.0606,0.061,0.0601,0.0768,0.075,0.0763,0.0826,0.0852,0.0857,0.086,0.0863,0.1037,0.1038,0,0,0,0,0,0,0.0749,0.0743,0.0572,0.0569,0.0689,0.0646,0.0637,0.0586,0.0667,0.068,0.0598,0.0604,0.0739,0.0756,0.0771,0.0926,0.0858,0.0863,0.0867,0.1036,0.1037,0.1039,0,0,0,0,0,0,0.0753,0.0732,0.0574,0.0657,0.064,0.0638,0.0581,0.0584,0.0616,0.0658,0.0678,0.0634,0.0742,0.0763,0.0895,0.0929,0.0866,0.0871,0.1034,0.1036,0.1038,0.1117,0,0,0,0,0,0,0.0759,0.0733,0.0703,0.0655,0.0635,0.0584,0.0578,0.058,0.0601,0.061,0.0695,0.0715,0.0747,0.0886,0.09,0.0936,0.0875,0.1033,0.1035,0.1037,0.1113,0.1122,0.1129,0,0,0,0,0,0.0767,0.0713,0.07,0.0681,0.0588,0.0585,0.0581,0.0593,0.0601,0.0631,0.071,0.0715,0.0909,0.0894,0.0909,0.0947,0.1032,0.1035,0.1037,0.111,0.112,0.1129,0,0,0,0,0,0,0.0803,0.0712,0.0698,0.0619,0.0629,0.0597,0.061,0.061,0.068,0.0709,0.0755,0.0783,0.0921,0.091,0.089,0.0998,0.096,0.0966,0.1009,0.1019,0.1027,0.0998,0.088,0,0,0,0,0,0.0788,0.072,0.0686,0.0629,0.0642,0.0632,0.0631,0.0644,0.0685,0.0716,0.08,0.0862,0.0925,0.096,0.1038,0.1087,0.1101,0.111,0.1118,0.1125,0.111,0.12,0.1216,0.1048,0.1048,0.1048,0,0,0.0773,0.0724,0.068,0.0633,0.064,0.0645,0.0644,0.0665,0.0686,0.0733,0.0851,0.0934,0.0958,0.1051,0.11,0.1052,0.1179,0.1128,0.1134,0.1115,0.1205,0.1221,0.1236,0.105,0.1049,0.1049,0,0,0.0753,0.0694,0.0662,0.0673,0.0687,0.0676,0.0696,0.073,0.078,0.088,0.0925,0.1012,0.113,0.1133,0.114,0.1217,0.1254,0.126,0.1243,0.1333,0.1348,0.1361,0.14,0.1416,0.1221,0.1221,0.1221,0,0.0776,0.0691,0.0667,0.0676,0.0689,0.0698,0.0722,0.0741,0.0829,0.0892,0.0948,0.1109,0.1141,0.1173,0.121,0.1231,0.1303,0.1211,0.1346,0.1359,0.1371,0.1408,0.1424,0.1225,0.1225,0.1224,0.1224,0,0.073,0.0702,0.0706,0.0693,0.0716,0.0736,0.0769,0.0846,0.092,0.0956,0.1107,0.1164,0.1248,0.1259,0.1264,0.1343,0.1376,0.1387,0.1326,0.1394,0.1426,0.1443,0.1231,0.123,0.1228,0.1227,0,0,0.0731,0.068,0.0695,0.0693,0.0735,0.0736,0.0816,0.0881,0.0935,0.1056,0.1152,0.1227,0.1294,0.1301,0.1318,0.1351,0.1488,0.1415,0.1418,0.1458,0.1707,0.155,0.1552,0.1582,0.1585,0.1588,0.1695,0,0.0742,0.0717,0.0709,0.072,0.0727,0.0785,0.085,0.0918,0.1018,0.1129,0.1175,0.1295,0.1289,0.1368,0.1403,0.1437,0.1538,0.1457,0.1628,0.163,0.1489,0.1567,0.1598,0.1707,0.171,0.1713,0.1715,0,0.0731,0.0712,0.0714,0.073,0.0751,0.0773,0.0888,0.096,0.1097,0.1198,0.1304,0.1383,0.1397,0.1456,0.1526,0.1503,0.1654,0.169,0.1697,0.1526,0.1503,0.1624,0.1744,0.1741,0.1739,0.1737,0.1736,0,0.0715,0.0726,0.071,0.0715,0.0743,0.0806,0.0872,0.101,0.1111,0.1275,0.1363,0.1418,0.1476,0.1589,0.1642,0.1649,0.1764,0.1766,0.1783,0.1772,0.1845,0.183,0.199,0.199,0.1989,0.1989,0.1989,0,0.0705,0.0708,0.07,0.0681,0.0731,0.0806,0.0926,0.1011,0.1188,0.1289,0.141,0.1479,0.1552,0.1616,0.1685,0.1706,0.1807,0.1785,0.1797,0.1873,0.186,0.1857,0.184,0.1993,0.1992,0.1991,0.1991,0,0.069,0.0675,0.0642,0.0666,0.0708,0.076,0.0952,0.1041,0.1209,0.135,0.1422,0.1548,0.1595,0.1643,0.1786,0.1738,0.1789,0.1868,0.1906,0.1918,0.1734,0.172,0.181,0.1806,0.1802,0.1799,0.1796,0,0.0677,0.0648,0.0616,0.0626,0.0647,0.0769,0.0873,0.1058,0.1155,0.1366,0.1401,0.1552,0.1619,0.1623,0.1689,0.1758,0.1832,0.1828,0.1805,0.1717,0.1721,0.1713,0.1704,0.179,0.1789,0.1788,0.1787,0,0.0647,0.0612,0.0546,0.0575,0.0634,0.0726,0.0876,0.0937,0.1154,0.1283,0.1406,0.1487,0.1555,0.1576,0.1673,0.1738,0.1725,0.179,0.1799,0.1777,0.1694,0.1699,0.1696,0.1774,0.1776,0.1777,0.1778,0,0.0624,0.0555,0.0475,0.0495,0.0571,0.066,0.0748,0.0886,0.102,0.1243,0.128,0.1429,0.1556,0.1579,0.1631,0.1651,0.1661,0.1617,0.1636,0.1651,0.154,0.1407,0.1416,0,0,0,0,0,0.0617,0.0502,0.0455,0.043,0.0505,0.0592,0.0735,0.0833,0.1012,0.1082,0.1201,0.1291,0.1391,0.1458,0.1456,0.1524,0.1623,0.1507,0.1572,0.1702,0.1717,0.1595,0,0,0,0,0,0,0.0588,0.0498,0.0397,0.0393,0.0425,0.0536,0.0635,0.0751,0.0811,0.0992,0.1065,0.1208,0.1321,0.1402,0.1437,0.1453,0.1464,0.161,0.1606,0.1693,0.1707,0.1719,0.1599,0,0,0,0,0]},{"header":{"parameterUnit":"m.s-1","parameterCategory":2,"la1":30.2991,"la2":30.254,"lo1":-89.0895,"lo2":-89.0444,"dy":0.0017,"dx":0.0017,"nx":28,"ny":28,"refTime":"2025-06-06T21:00:00:Z","depth":"4","parameterNumber":3,"parameterNumberName":"V-component_of_CURRENTS"},"data":[0,0,0,0,0,0,0,0,0,0,0,0,0,0,0,0,0,0,0,0,0,0,0,0,0,0,0,0,0,0,0,0,0,0,0,0,0,0,0,0,0,0,0,0,0,0,0,0,0,0,0,0,0,0,0,0,0,0,0.0187,0.0188,0,0.0205,0.0205,0.0204,0.0231,0.0232,0.0233,0.0234,0.0091,0.0086,0.0082,0,0,0,0,0,0,0,0,0,0,0,0,0,0.0121,0.0123,0.0187,0.0188,0.0188,0.0205,0.0205,0.0204,0.0231,0.0232,0.0233,0.0234,0.0092,0.0087,0.0081,0,0,0,0,0,0,0,0,0,0,0,0,0,0.0142,0.0123,0.0187,0.0206,0.0209,0.0205,0.0205,0.0204,0.0231,0.0232,0.0233,0.0234,0.0094,0.0087,0.0081,0.0013,0,0,0.006,0.0057,0,0,0,0,0,0,0,0,0.0141,0.0144,0.0203,0.0205,0.0208,0.0221,0.0129,0.0134,0.023,0.0218,0.0234,0.0235,0.0121,0.0112,0.0109,0.0006,0.0,0.0059,0.0055,0.0052,0.005,0,0,0,0,0,0,0,0.0139,0.0143,0.019,0.0204,0.0207,0.0196,0.02,0.013,0.0156,0.0219,0.0222,0.023,0.0121,0.0116,0.0105,-0.0002,0.0059,0.0053,0.0049,0.0046,-0.0186,-0.0188,0,0,0,0,0,0,0.0147,0.0142,0.019,0.0191,0.0181,0.0196,0.0201,0.0212,0.016,0.0156,0.0229,0.0231,0.0127,0.0113,0.01,0.0011,0.0052,0.0045,0.0041,-0.0184,-0.0186,-0.0189,0,0,0,0,0,0,0.0145,0.0151,0.0189,0.017,0.0174,0.0197,0.0208,0.0212,0.0217,0.017,0.0163,0.0233,0.0127,0.011,0.0039,0.0006,0.0042,0.0036,-0.0181,-0.0185,-0.0187,-0.0165,0,0,0,0,0,0,0.0143,0.015,0.0158,0.017,0.0176,0.019,0.0208,0.0211,0.0222,0.0225,0.017,0.0159,0.0127,0.005,0.0032,-0.0003,0.0031,-0.0179,-0.0183,-0.0186,-0.0164,-0.0167,-0.0171,0,0,0,0,0,0.0141,0.0154,0.0158,0.0164,0.0186,0.019,0.0191,0.0208,0.0221,0.0218,0.0179,0.0161,0.0013,0.0043,0.0023,-0.0016,-0.0177,-0.0182,-0.0186,-0.0162,-0.0167,-0.0171,0,0,0,0,0,0,0.0131,0.0159,0.0163,0.0184,0.0186,0.0196,0.0204,0.0208,0.0179,0.0179,0.0135,0.0119,0.0036,0.0004,0.0039,-0.0096,-0.0087,-0.0096,-0.0062,-0.0067,-0.007,-0.0044,0.0025,0,0,0,0,0,0.0131,0.015,0.0161,0.0177,0.0181,0.0188,0.0193,0.02,0.0181,0.0174,0.0133,0.0074,-0.0002,-0.0033,-0.0104,-0.0172,-0.0187,-0.0212,-0.0216,-0.0218,-0.0213,-0.0272,-0.0279,-0.0204,-0.0204,-0.0203,0,0,0.0134,0.0151,0.0163,0.0176,0.0183,0.0187,0.0194,0.0203,0.0194,0.0154,0.0118,0.0051,-0.0028,-0.0105,-0.0145,-0.013,-0.0246,-0.0224,-0.0225,-0.0219,-0.0277,-0.0284,-0.029,-0.0207,-0.0206,-0.0206,0,0,0.0149,0.0162,0.018,0.0184,0.0195,0.0191,0.0194,0.0192,0.018,0.0132,0.0088,0.0011,-0.0081,-0.0145,-0.0191,-0.0261,-0.0273,-0.0288,-0.0273,-0.033,-0.0336,-0.0341,-0.0348,-0.0354,-0.0276,-0.0276,-0.0276,0,0.0151,0.0178,0.0182,0.0196,0.0204,0.0194,0.0203,0.0181,0.0152,0.0122,0.0123,-0.004,-0.0102,-0.0213,-0.023,-0.0269,-0.0278,-0.0244,-0.0331,-0.0337,-0.0342,-0.0348,-0.0355,-0.0276,-0.0276,-0.0276,-0.0276,0,0.0179,0.0197,0.0208,0.0223,0.0219,0.0229,0.0204,0.0181,0.0159,0.0127,0.0019,-0.0071,-0.0158,-0.0205,-0.0234,-0.0324,-0.0309,-0.0334,-0.0308,-0.0348,-0.0352,-0.036,-0.0275,-0.0275,-0.0275,-0.0275,0,0,0.0198,0.0224,0.023,0.0239,0.0238,0.0238,0.0208,0.0169,0.0147,0.0075,0.0022,-0.0117,-0.016,-0.0215,-0.0282,-0.0329,-0.0374,-0.0333,-0.0336,-0.0316,-0.0457,-0.0418,-0.0422,-0.0405,-0.0407,-0.0408,-0.0434,0,0.022,0.0258,0.0256,0.0272,0.0286,0.026,0.024,0.0194,0.014,0.0079,-0.004,-0.0117,-0.0167,-0.0206,-0.0272,-0.038,-0.0397,-0.0362,-0.0441,-0.0443,-0.0386,-0.0431,-0.0414,-0.0439,-0.0441,-0.0442,-0.0443,0,0.0248,0.0271,0.0303,0.0306,0.0309,0.0314,0.0275,0.0254,0.0155,0.0108,0.0003,-0.0081,-0.021,-0.0217,-0.0387,-0.036,-0.0387,-0.0442,-0.0445,-0.0421,-0.0419,-0.0402,-0.0457,-0.0456,-0.0455,-0.0454,-0.0453,0,0.0267,0.0296,0.0325,0.0333,0.0335,0.0336,0.0334,0.0268,0.0248,0.0136,0.0096,-0.0071,-0.015,-0.0254,-0.0373,-0.0377,-0.0518,-0.0546,-0.0523,-0.0518,-0.055,-0.0544,-0.06,-0.06,-0.06,-0.06,-0.06,0,0.029,0.031,0.0348,0.0364,0.0395,0.0384,0.0397,0.0352,0.0302,0.0265,0.0127,0.0055,-0.0158,-0.0272,-0.0363,-0.0473,-0.0511,-0.0522,-0.0535,-0.0538,-0.0532,-0.0553,-0.0547,-0.0601,-0.0601,-0.06,-0.06,0,0.0299,0.0328,0.0362,0.0391,0.0409,0.0435,0.0473,0.0474,0.0416,0.0359,0.033,0.0139,-0.0027,-0.0198,-0.0375,-0.0449,-0.0557,-0.055,-0.0507,-0.0516,-0.0515,-0.0508,-0.0568,-0.0567,-0.0566,-0.0566,-0.0565,0,0.0307,0.0332,0.0391,0.0429,0.0453,0.0508,0.0548,0.0535,0.0523,0.0411,0.0367,0.0211,0.0075,-0.015,-0.0331,-0.0499,-0.0499,-0.0536,-0.0565,-0.0511,-0.0518,-0.0512,-0.0506,-0.0564,-0.0564,-0.0564,-0.0563,0,0.0312,0.0342,0.037,0.046,0.0521,0.0581,0.0622,0.0614,0.0575,0.0538,0.0413,0.027,0.0089,-0.0129,-0.0242,-0.0363,-0.0538,-0.0529,-0.0532,-0.056,-0.0507,-0.0513,-0.0508,-0.0561,-0.0561,-0.0561,-0.0562,0,0.0315,0.0345,0.0403,0.047,0.0553,0.0599,0.0628,0.0624,0.0621,0.0495,0.0468,0.0269,0.0153,-0.0052,-0.017,-0.0293,-0.0333,-0.0365,-0.0377,-0.0382,-0.0333,-0.0239,-0.0223,0,0,0,0,0,0.0317,0.0348,0.0411,0.0474,0.0554,0.0611,0.0643,0.0658,0.0621,0.056,0.0517,0.0367,0.0144,0.0026,-0.0088,-0.0181,-0.0372,-0.0319,-0.0419,-0.0546,-0.0549,-0.0523,0,0,0,0,0,0,0.0321,0.0373,0.0401,0.0466,0.0518,0.0606,0.0634,0.0616,0.0574,0.0523,0.0408,0.0366,0.0146,0.0225,-0.0079,-0.0124,-0.0197,-0.042,-0.0422,-0.0545,-0.0548,-0.055,-0.0524,0,0,0,0,0]}]]